Location: Alpha Ridge Park
(39.3209°N, 76.9128°W)
Time: 17:06:54
(UTC-04:00)

Transit 2A - Pass Details

Date: 30 May 2019
Orbit: 593 x 966 km, 66.7° (Epoch: 18 June)

Event Time Altitude Azimuth Distance (km) Brightness Sun altitude
Rises 14:40:11 0° 339° (NNW) 3,549 9.4 63.2°
Reaches altitude 10° 14:43:14 10° 351° (N) 2,550 8.7 62.7°
Maximum altitude 14:48:07 26° 47° (NE) 1,578 7.7 61.9°
Drops below altitude 10° 14:52:37 10° 104° (ESE) 2,332 8.4 61.2°
Sets 14:55:16 0° 117° (ESE) 3,189 9.0 60.7°
